sat.trackr.live / text

‹ back to catalog

BEIDOU-3 M25 (C47)

NORAD 61186 · 2024-168B

PAYLOAD ACTIVE UNKNOWN

§ Identity

Operator
Country
PRC
Launch date
2024-09-19
Launch site
XICLF
Launch vehicle
Mass (kg)
RCS (m²)

Purposes: nav

External: N2YO · Heavens-Above · Gunter

§ Orbital elements

Epoch: 2026-09-18T14:50:49.932672Z

Period
773.24 min
Inclination
54.3872°
Eccentricity
0.0004683
Mean motion
1.86230374 rev/d
Perigee alt
21,515.0 km
Apogee alt
21,541.2 km
Semi-major
27,906.3 km
B*
0.0000e+0
RAAN
298.9874°
Arg perigee
289.6844°
Mean anomaly
249.2138°
Rev number
1,352

§ Raw data

BEIDOU-3 M25 (C47)1 61186U 24168B   26261.61863348 -.00000036  00000+0  00000+0 0  99972 61186  54.3872 298.9874 0004683 289.6844 249.2138  1.86230374 13526

JSON: /api/v1/satellites/61186 · /tle

For live sub-satellite position, see the globe view (requires WebGL).

§ Visibility from observer

Set your observer location to see the next 7 days of passes ≥ 10°. The values pass through the URL so the page stays shareable.

No JS? Fill the form by hand. The geolocation button needs JavaScript.